Theta_e
310 310 311 311 311 310 310 310 310 308 309 310 309 309 309 310 311 310 312 310 312 317 318 319 319 317 323 323 325 325 329 329 328 328 328 325 326 323 319 319 329 336 338 340 342
310 310 310 309 309 309 309 309 310 307 308 309 308 308 309 309 309 310 310 312 312 316 318 317 316 320 324 324 326 327 329 327 324 325 327 325 325 324 318 316 339 342 341 341 341
310 310 308 308 309 309 309 309 309 307 306 308 308 308 308 308 307 307 306 310 313 314 315 318 317 318 325 323 323 326 329 325 325 326 325 326 324 321 318 318 329 344 342 339 339
309 309 307 308 308 309 309 309 308 306 306 307 307 308 307 306 303 309 310 311 313 314 314 317 316 319 322 324 322 325 325 324 326 326 326 327 324 322 318 316 317 328 338 337 338
309 308 307 307 307 309 309 309 307 305 306 305 304 305 305 305 305 304 306 308 309 308 313 315 316 318 321 321 323 321 322 321 325 325 325 324 324 321 321 321 316 331 336 335 335
308 308 308 306 306 307 308 307 307 307 306 304 304 304 305 304 304 306 305 306 307 311 313 315 314 315 319 321 323 322 321 322 323 323 320 323 323 320 322 314 318 333 335 334 333
307 307 307 307 306 305 305 306 307 307 305 307 306 304 305 303 304 304 305 306 306 310 314 315 317 315 317 321 320 321 322 322 321 320 322 323 322 323 321 320 316 318 322 322 328
305 305 306 307 306 306 306 305 305 305 306 307 307 306 303 302 304 304 305 305 307 313 313 315 317 314 316 317 319 321 321 324 322 321 320 322 325 323 321 321 315 315 314 314 313
304 304 305 306 307 306 307 308 305 305 306 306 306 304 303 304 306 305 306 306 307 312 313 316 317 314 316 318 319 321 323 322 321 320 319 320 319 321 320 319 315 314 313 312 312
303 304 304 305 306 306 306 304 304 306 306 306 305 304 303 304 304 304 305 305 309 310 315 317 320 316 315 318 320 322 321 320 321 320 319 319 317 316 315 314 314 313 312 312 311
304 303 304 305 306 306 304 306 302 302 303 304 304 303 304 303 303 306 306 306 306 309 316 318 317 316 317 316 317 317 318 320 318 318 320 320 318 318 314 312 311 311 311 311 311
304 303 303 305 306 305 302 302 302 301 302 302 302 304 304 304 304 307 306 307 305 310 314 321 314 313 315 317 318 318 318 319 317 317 319 318 319 317 317 315 312 311 310 310 310
304 303 303 305 305 304 302 302 302 303 304 305 305 305 304 304 305 307 307 307 306 308 311 317 317 315 317 318 319 318 317 317 318 315 314 317 318 317 315 313 313 311 309 309 308
304 303 304 305 305 304 303 303 303 303 306 308 307 305 305 305 307 307 307 308 308 310 312 318 315 316 318 319 317 319 315 315 316 317 320 316 320 313 314 314 312 311 308 308 306
303 303 304 304 304 304 303 303 304 303 303 310 308 305 306 308 308 307 306 310 308 310 309 317 317 317 318 318 315 317 313 314 315 316 315 314 316 313 309 313 314 312 307 306 305
303 304 304 304 305 305 304 304 304 299 305 310 309 310 310 309 307 307 308 310 311 312 314 317 313 315 317 316 315 316 313 313 313 314 316 315 315 313 309 309 312 309 305 304 308
303 304 305 305 304 304 304 304 299 308 307 312 313 310 309 310 311 312 312 313 314 316 317 318 316 315 314 316 317 315 314 316 319 320 318 312 314 317 310 308 308 308 305 303 307
302 305 305 303 305 304 304 298 304 309 310 311 313 313 315 314 313 313 312 315 313 314 315 319 320 316 313 315 316 315 312 312 318 319 316 311 316 314 310 308 306 306 306 307 309
304 305 305 305 305 304 300 299 301 299 305 311 312 317 314 315 316 317 316 316 314 313 314 314 316 314 316 315 315 317 319 309 307 305 308 310 309 307 309 309 307 309 310 311 311
305 304 305 306 305 304 298 304 300 304 308 310 314 312 317 318 317 315 316 316 316 313 310 310 316 313 315 315 315 317 313 315 304 309 314 311 310 311 311 309 308 310 311 311 311
304 304 305 305 305 301 300 300 306 308 308 311 313 313 313 315 315 313 313 312 313 314 310 308 311 314 316 317 318 319 319 314 310 307 312 312 310 304 305 308 310 311 312 311 311
299 302 305 306 301 300 306 309 309 311 308 310 311 312 312 311 313 313 313 311 309 312 314 311 311 315 316 313 315 317 318 311 310 310 303 304 307 304 302 307 310 311 311 310 311
300 300 304 306 304 304 309 312 311 311 311 311 311 310 310 311 313 312 311 310 310 311 312 311 311 315 315 313 314 318 317 313 307 303 303 307 309 304 304 307 309 309 310 310 311
297 299 299 302 303 309 308 312 313 310 311 309 309 309 310 311 309 312 311 311 308 309 312 311 309 308 310 309 312 317 318 313 309 307 308 306 309 308 308 307 309 309 310 311 310
294 298 298 299 305 305 306 310 312 313 310 309 310 309 310 311 311 312 311 311 309 309 309 308 310 306 311 311 307 310 314 316 308 315 313 315 310 309 307 307 308 309 309 311 309
294 295 294 296 299 304 306 309 311 311 311 312 311 311 310 310 310 311 310 310 310 308 309 305 306 303 306 310 309 309 310 314 314 312 313 312 310 307 307 307 308 309 310 311 310
295 295 295 297 297 305 302 305 309 309 311 310 311 310 311 310 307 306 306 306 307 307 308 307 305 303 304 308 307 308 307 309 311 308 311 312 314 307 305 307 307 306 309 311 309
Wind_Speed
20 21 21 23 22 21 20 19 17 15 12 8 8 7 8 8 7 8 8 9 14 9 4 7 11 6 1 5 0 1 4 12 9 6 3 6 8 6 6 3 4 3 3 10 21
21 22 22 25 25 23 19 17 16 12 9 9 7 6 6 6 6 10 13 14 15 13 7 6 5 7 3 5 4 4 9 16 6 4 2 5 4 9 8 9 4 4 9 19 24
22 23 25 25 25 23 18 14 13 12 9 8 6 5 4 3 2 6 17 20 16 10 10 4 11 5 5 3 4 5 16 10 2 1 7 7 6 8 8 6 4 9 11 6 18
21 23 24 25 24 21 12 9 9 6 5 5 5 3 2 3 4 3 3 16 15 8 12 6 5 6 6 8 4 9 15 12 7 3 1 5 9 11 7 7 8 8 5 7 10
21 21 22 23 23 19 13 9 3 2 1 2 4 3 6 2 7 11 11 2 6 13 16 11 5 5 12 6 5 2 12 10 13 5 3 9 12 6 19 22 8 4 3 7 6
20 19 20 18 19 19 16 11 6 3 0 1 1 4 2 1 3 3 9 8 7 11 19 16 7 5 4 6 7 7 4 13 11 8 8 6 14 10 15 11 4 7 6 6 7
19 18 18 17 15 14 12 9 7 4 1 2 2 3 1 7 2 6 10 8 15 18 14 17 8 7 2 2 3 3 6 7 7 8 5 13 8 10 26 18 5 3 5 6 7
18 18 17 16 12 11 10 8 3 2 1 1 0 1 4 4 7 2 3 9 18 15 16 17 13 4 2 1 5 4 5 4 10 12 5 15 10 20 26 16 10 5 4 3 4
19 18 16 16 13 10 9 8 2 1 2 1 2 1 6 6 1 4 9 5 16 7 11 8 11 4 2 5 4 3 6 11 6 17 9 12 5 19 20 16 13 6 6 5 4
19 18 17 16 13 11 12 3 2 2 3 2 1 1 3 4 4 5 10 4 1 2 8 7 6 6 3 5 16 21 9 12 12 16 20 11 5 8 16 12 12 8 7 6 5
18 18 17 16 11 10 9 4 3 2 2 3 1 2 2 7 4 2 9 7 6 5 7 8 4 21 22 8 1 7 6 12 1 8 12 11 6 6 6 5 7 9 8 8 7
19 19 17 15 10 7 1 3 3 1 1 2 5 3 1 2 3 2 5 4 5 2 4 6 12 13 8 8 4 10 5 8 2 4 11 4 7 7 7 6 6 8 8 9 5
22 20 18 13 7 1 6 3 5 2 2 2 3 1 1 2 1 2 2 6 6 3 4 2 10 10 10 5 6 2 6 5 6 4 3 4 5 6 9 3 4 6 6 6 9
22 23 17 7 2 2 2 5 2 3 0 0 2 0 1 1 2 2 2 4 4 4 5 1 12 12 12 5 4 4 3 5 7 5 4 4 4 7 7 11 7 10 8 8 8
25 23 12 3 2 4 4 6 1 3 4 2 4 2 2 2 3 1 2 2 8 5 5 4 18 14 10 6 5 3 2 5 3 3 3 2 1 6 1 8 18 13 8 8 8
28 21 6 3 5 3 4 4 3 4 2 2 1 3 4 1 1 3 2 2 3 2 4 6 4 4 3 4 3 4 5 6 5 3 2 5 5 5 6 7 4 8 9 9 9
28 12 4 6 1 5 6 3 4 5 1 3 0 3 2 4 5 3 6 6 3 2 1 12 4 2 3 7 2 3 5 2 2 1 5 2 5 12 6 6 6 8 7 8 7
21 3 6 4 7 4 3 3 7 3 1 0 1 5 1 1 4 4 2 3 3 2 5 4 5 2 4 3 5 3 4 4 5 4 3 3 8 5 6 5 7 7 7 9 9
8 3 5 5 7 4 3 4 6 6 2 1 2 2 1 3 3 3 3 1 2 5 3 4 3 2 4 1 2 4 3 3 6 3 3 5 7 8 4 5 2 6 8 9 9
3 2 2 5 8 4 4 1 2 4 3 2 3 1 2 2 2 2 3 2 4 6 1 3 5 1 1 2 2 2 2 1 3 3 4 4 5 6 4 7 6 9 9 8 7
2 2 2 2 5 3 3 4 3 5 3 2 2 1 1 3 1 3 2 2 3 4 3 4 3 3 6 6 7 2 2 2 3 4 4 2 5 6 6 7 10 11 11 10 9
2 2 3 0 2 0 1 2 2 2 1 2 2 3 1 2 3 2 3 1 3 7 4 2 4 5 2 3 3 4 4 6 4 4 1 2 5 2 6 7 8 6 8 8 7
2 2 3 1 2 2 2 1 1 1 2 2 2 3 2 2 3 2 2 1 1 6 6 5 2 4 1 2 2 6 6 4 3 3 6 4 5 2 4 4 6 8 7 7 6
2 2 4 3 1 1 4 3 1 2 2 2 2 2 2 3 5 2 2 1 2 2 4 5 3 5 7 5 4 6 9 7 6 4 4 6 5 4 2 6 5 6 7 7 8
3 1 2 3 3 4 1 3 2 2 1 2 1 3 2 2 2 2 1 2 4 3 4 3 4 3 2 1 3 3 9 17 9 14 9 7 8 6 6 9 9 8 6 7 7
2 2 3 2 4 4 4 3 5 5 4 3 2 4 2 2 2 5 4 2 3 1 2 2 1 2 2 2 4 4 7 12 16 8 8 11 7 6 2 4 5 8 8 7 8
4 2 2 4 5 1 3 4 4 5 2 5 3 3 2 2 1 1 2 2 3 6 3 3 5 3 4 3 3 6 8 11 6 6 11 11 15 4 6 7 9 8 8 10 8
Wind_Direction
340 340 336 333 328 321 312 305 293 281 278 279 281 285 290 302 284 251 229 232 236 248 240 197 198 210 279 195 103 51 146 208 199 176 220 14 3 315 283 299 3 26 132 131 143
340 340 338 332 327 320 309 301 296 273 270 276 281 282 295 301 289 256 238 245 249 252 269 182 142 160 210 177 192 159 210 206 177 108 103 333 22 325 4 336 337 64 75 117 138
345 345 341 340 334 326 313 298 296 255 250 249 267 275 288 295 347 247 255 225 239 236 251 295 172 164 202 150 211 185 213 219 169 322 56 324 18 345 335 340 254 163 148 121 135
346 347 347 349 346 342 336 320 309 239 229 225 263 267 253 167 209 64 96 210 232 251 243 234 150 161 182 186 192 165 245 200 131 99 31 322 341 344 315 275 334 290 141 140 148
346 348 351 354 359 358 353 347 357 267 175 212 258 226 146 119 262 289 327 124 276 267 219 215 163 170 188 177 154 151 182 198 105 117 285 316 298 351 293 295 324 208 108 149 156
346 347 351 355 1 10 20 36 47 66 101 175 147 167 105 237 280 299 302 241 333 298 194 206 191 208 189 167 167 181 72 110 124 176 229 250 281 8 291 312 29 177 173 165 173
345 343 347 352 355 3 9 16 31 38 50 88 115 152 103 246 284 326 336 259 318 294 183 199 213 187 168 119 156 139 86 121 170 141 212 189 235 253 260 277 259 158 211 192 224
345 342 340 346 346 356 359 0 353 15 350 330 216 241 254 271 322 294 84 264 308 211 185 190 209 228 263 150 58 89 129 142 185 172 239 156 227 219 251 255 258 183 205 222 166
343 339 335 339 336 334 337 329 312 169 201 194 359 356 285 335 77 5 135 166 289 140 189 191 178 189 38 106 89 118 189 192 143 196 193 176 205 206 231 254 250 231 226 241 261
342 338 335 335 329 327 338 341 172 186 169 147 155 12 302 341 333 325 192 193 144 35 148 171 197 161 143 165 186 186 190 189 185 191 203 195 224 165 197 207 223 226 240 224 257
336 336 331 330 323 326 340 128 49 346 210 183 191 241 353 332 340 230 132 87 44 27 199 206 165 183 192 177 278 140 122 195 153 182 187 215 179 240 203 193 230 232 229 238 222
333 334 329 324 315 326 13 103 133 131 354 250 249 216 126 356 324 335 141 87 76 24 179 203 188 178 133 164 113 146 140 178 117 152 187 187 212 231 261 237 204 231 223 219 199
332 331 325 315 305 191 87 127 142 87 79 350 341 353 304 9 161 240 325 114 85 299 305 212 155 161 158 162 113 143 152 165 159 114 56 114 288 215 247 242 230 235 233 218 195
331 331 323 311 168 179 139 152 114 79 241 305 115 309 164 286 148 81 340 138 101 236 221 236 159 141 141 150 117 101 174 134 122 127 202 160 264 257 227 242 242 235 219 210 170
334 333 328 213 178 171 148 147 135 88 62 87 134 172 67 297 97 195 328 314 135 183 188 206 143 140 146 154 125 98 143 163 120 106 124 233 172 256 178 223 234 229 216 210 185
333 333 324 198 222 141 143 147 117 45 7 113 133 147 173 152 54 128 169 282 33 220 216 85 63 75 117 69 130 120 82 58 62 95 276 193 180 254 214 210 218 226 210 191 180
334 328 218 171 184 149 164 113 41 54 308 8 284 181 162 163 175 172 147 129 199 169 117 97 53 52 46 89 48 87 86 53 59 209 223 253 191 246 249 234 224 241 207 181 170
339 36 169 174 162 174 147 53 68 245 274 251 102 23 18 122 62 108 17 155 157 244 66 105 142 51 337 127 159 147 145 151 180 196 236 118 241 241 232 238 252 237 180 156 160
345 132 146 177 170 181 74 50 181 194 238 330 126 69 77 129 152 165 176 172 89 203 131 124 82 82 29 88 93 175 165 188 105 24 55 222 293 293 227 265 207 166 143 165 167
10 15 77 130 176 123 76 240 202 199 174 260 68 160 124 154 121 129 136 222 151 211 156 138 104 0 117 59 58 76 146 139 5 144 237 257 271 246 271 256 194 162 167 162 161
18 53 118 167 172 71 124 223 249 238 174 180 342 350 166 171 150 123 138 191 159 158 113 135 104 147 143 198 191 158 191 153 137 155 207 254 257 217 265 251 201 180 169 167 170
31 38 4 264 80 167 113 179 198 223 168 268 239 253 9 64 83 106 133 134 204 152 130 158 109 150 154 332 208 225 228 190 155 221 249 157 273 309 289 248 160 169 165 170 174
61 275 342 359 81 357 292 126 180 330 254 144 313 359 3 59 99 100 123 328 152 158 161 182 111 102 66 336 213 223 195 206 113 73 204 147 258 333 2 167 160 163 178 169 161
76 23 322 28 30 14 23 6 345 177 285 264 253 309 342 55 29 127 119 37 81 112 94 104 136 165 194 203 147 194 201 197 173 196 179 224 277 316 307 217 202 183 182 172 171
29 226 166 308 12 5 6 325 320 47 247 330 20 29 307 79 80 93 79 56 30 41 55 104 165 134 300 174 119 222 206 209 204 219 205 230 216 242 235 214 197 182 170 157 172
85 65 4 317 306 341 12 356 42 337 35 2 28 333 20 160 171 204 139 197 191 72 103 30 179 91 319 197 204 244 222 214 221 238 254 256 260 236 272 129 169 180 174 188 196
16 17 87 345 343 297 12 329 336 352 37 78 359 356 40 55 1 283 194 183 173 156 147 120 135 104 260 333 316 288 219 193 201 198 211 224 244 195 201 194 203 203 192 199 194